Weather History for Zephyrhills, FL

Change the Weather History Date:

Tuesday, March 5, 2013

  Actual Average (KPCM) Record (KPCM)
Temperature  
Mean Temperature 53 °F -  
Max Temperature 73 °F 77 °F 89 °F (1977)
Min Temperature 33 °F 55 °F 33 °F (1971)
Degree Days  
Heating Degree Days 12    
Growing Degree Days 3 (Base 50)    
Moisture  
Dew Point 42 °F    
Average Humidity 63    
Maximum Humidity 94    
Minimum Humidity 27    
Precipitation  
Precipitation 0.00 in - - ()
Sea Level Pressure  
Sea Level Pressure 30.14 in    
Wind  
Wind Speed 4 mph (SW)    
Max Wind Speed 17 mph    
Max Gust Speed 21 mph    
Visibility 9 miles    
Events      
Averages and records for this station are not official NWS values.
T = Trace of Precipitation, MM = Missing Value Source: NWS Daily Summary

Daily Weather History Graph

Daily Weather History Graph

Search for Another Location

Airport:

Trip Planner

Search our weather history database for the weather conditions in past years. The results will help you decide how hot, cold, wet, or windy it might be!

Date:

Astronomy

Mar. 05, 2013 Rise Set
Actual Time 6:48 AM EST 6:31 PM EST
Civil Twilight 6:25 AM EST 6:55 PM EST
Nautical Twilight 5:58 AM EST 7:22 PM EST
Astronomical Twilight 5:30 AM EST 7:49 PM EST
Moon 1:38 AM EST (3/5) 12:30 PM EST (3/5)
Length of Visible Light 12h 29m
Length of Day
11h 42m
Last Quarter, 41% of the Moon is Illuminated
Mar 5
Last Quarter
Mar 11
New
Mar 19
First Quarter
Mar 27
Full
Apr 3
Last Quarter

Hourly Weather History & Observations

Time (EST) Temp. Dew Point Humidity Pressure Visibility Wind Dir Wind Speed Gust Speed Precip Events Conditions
12:15 AM 37.4 °F 32.0 °F 81% 30.19 in 10.0 mi Calm Calm - N/A   Clear
12:35 AM 39.2 °F 32.0 °F 75% 30.18 in 10.0 mi Calm Calm - N/A   Clear
12:55 AM 39.2 °F 32.0 °F 75% 30.18 in 10.0 mi Calm Calm - N/A   Clear
1:35 AM 35.6 °F 32.0 °F 87% 30.17 in 10.0 mi Calm Calm - N/A   Clear
1:55 AM 35.6 °F 32.0 °F 87% 30.16 in 5.0 mi Calm Calm - N/A   Clear
2:15 AM 35.6 °F 32.0 °F 87% 30.16 in 7.0 mi Calm Calm - N/A   Clear
2:35 AM 35.6 °F 32.0 °F 87% 30.16 in 7.0 mi Calm Calm - N/A   Clear
2:55 AM 35.6 °F 32.0 °F 87% 30.16 in 5.0 mi Calm Calm - N/A   Haze
3:15 AM 33.8 °F 32.0 °F 93% 30.16 in 5.0 mi Calm Calm - N/A   Clear
3:55 AM 35.6 °F 32.0 °F 87% 30.15 in 7.0 mi Calm Calm - N/A   Clear
4:15 AM 35.6 °F 32.0 °F 87% 30.15 in 10.0 mi Calm Calm - N/A   Clear
4:35 AM 35.6 °F 32.0 °F 87% 30.16 in 10.0 mi Calm Calm - N/A   Clear
4:55 AM 33.8 °F 32.0 °F 93% 30.16 in 5.0 mi Calm Calm - N/A   Clear
5:15 AM 33.8 °F 32.0 °F 93% 30.16 in 5.0 mi Calm Calm - N/A   Clear
5:35 AM 33.8 °F 32.0 °F 93% 30.17 in 7.0 mi Calm Calm - N/A   Clear
5:55 AM 33.8 °F 32.0 °F 93% 30.18 in 10.0 mi Calm Calm - N/A   Clear
6:15 AM 35.6 °F 33.8 °F 93% 30.18 in 10.0 mi Calm Calm - N/A   Clear
6:35 AM 35.6 °F 33.8 °F 93% 30.18 in 10.0 mi Calm Calm - N/A   Clear
7:35 AM 37.4 °F 35.6 °F 93% 30.19 in 7.0 mi Calm Calm - N/A   Clear
8:15 AM 48.2 °F 42.8 °F 82% 30.20 in 10.0 mi South 4.6 mph - N/A   Clear
8:35 AM 51.8 °F 41.0 °F 67% 30.20 in 10.0 mi South 6.9 mph - N/A   Clear
8:55 AM 55.4 °F 39.2 °F 54% 30.21 in 10.0 mi SSW 4.6 mph - N/A   Clear
9:15 AM 59.0 °F 39.2 °F 48% 30.21 in 10.0 mi South 5.8 mph - N/A   Clear
9:35 AM 60.8 °F 41.0 °F 48% 30.21 in 10.0 mi SW 3.5 mph - N/A   Clear
9:55 AM 62.6 °F 44.6 °F 52% 30.20 in 10.0 mi SW 5.8 mph - N/A   Clear
10:15 AM 64.4 °F 44.6 °F 49% 30.21 in 10.0 mi SW 4.6 mph - N/A   Clear
10:35 AM 64.4 °F 44.6 °F 49% 30.20 in 10.0 mi SW 8.1 mph - N/A   Clear
10:55 AM 68.0 °F 44.6 °F 43% 30.20 in 10.0 mi SW 6.9 mph - N/A   Clear
11:15 AM 68.0 °F 42.8 °F 40% 30.19 in 10.0 mi SW 10.4 mph 16.1 mph N/A   Clear
11:35 AM 69.8 °F 44.6 °F 40% 30.19 in 10.0 mi SW 5.8 mph - N/A   Clear
11:55 AM 69.8 °F 44.6 °F 40% 30.19 in 10.0 mi SW 11.5 mph 16.1 mph N/A   Clear
12:15 PM 71.6 °F 42.8 °F 35% 30.18 in 10.0 mi WSW 12.7 mph - N/A   Clear
12:35 PM 71.6 °F 44.6 °F 38% 30.17 in 10.0 mi WSW 10.4 mph 16.1 mph N/A   Clear
12:55 PM 71.6 °F 42.8 °F 35% 30.15 in 10.0 mi SW 9.2 mph 16.1 mph N/A   Clear
1:15 PM 71.6 °F 42.8 °F 35% 30.14 in 10.0 mi South 10.4 mph - N/A   Clear
1:35 PM 73.4 °F 44.6 °F 36% 30.13 in 10.0 mi WSW 10.4 mph 17.3 mph N/A   Clear
1:55 PM 73.4 °F 46.4 °F 38% 30.13 in 10.0 mi WSW 6.9 mph 16.1 mph N/A   Clear
2:15 PM 73.4 °F 44.6 °F 36% 30.12 in 10.0 mi West 10.4 mph 18.4 mph N/A   Clear
2:35 PM 73.4 °F 41.0 °F 31% 30.11 in 10.0 mi WSW 11.5 mph 16.1 mph N/A   Clear
2:55 PM 73.4 °F 41.0 °F 31% 30.11 in 10.0 mi SW 10.4 mph 19.6 mph N/A   Clear
3:15 PM 73.4 °F 42.8 °F 33% 30.11 in 10.0 mi WSW 12.7 mph 20.7 mph N/A   Clear
3:35 PM 73.4 °F 39.2 °F 29% 30.11 in 10.0 mi WSW 15.0 mph 20.7 mph N/A   Clear
3:55 PM 73.4 °F 39.2 °F 29% 30.11 in 10.0 mi WSW 10.4 mph - N/A   Clear
4:15 PM 73.4 °F 37.4 °F 27% 30.11 in 10.0 mi WSW 17.3 mph - N/A   Clear
4:35 PM 73.4 °F 39.2 °F 29% 30.11 in 10.0 mi SW 13.8 mph - N/A   Clear
4:55 PM 71.6 °F 37.4 °F 29% 30.11 in 10.0 mi WSW 12.7 mph 17.3 mph N/A   Clear
5:15 PM 71.6 °F 37.4 °F 29% 30.10 in 10.0 mi WSW 13.8 mph 17.3 mph N/A   Clear
5:35 PM 69.8 °F 39.2 °F 33% 30.10 in 10.0 mi SW 10.4 mph - N/A   Clear
5:55 PM 69.8 °F 37.4 °F 31% 30.10 in 10.0 mi SW 10.4 mph - N/A   Clear
6:15 PM 68.0 °F 41.0 °F 37% 30.10 in 10.0 mi SW 11.5 mph - N/A   Clear
6:35 PM 64.4 °F 41.0 °F 42% 30.10 in 10.0 mi SW 8.1 mph - N/A   Clear
6:55 PM 62.6 °F 42.8 °F 48% 30.09 in 10.0 mi SSW 5.8 mph - N/A   Clear
7:15 PM 62.6 °F 48.2 °F 59% 30.10 in 10.0 mi SSW 6.9 mph - N/A   Clear
7:35 PM 60.8 °F 50.0 °F 68% 30.09 in 10.0 mi SSW 5.8 mph - N/A   Clear
7:55 PM 60.8 °F 51.8 °F 72% 30.09 in 10.0 mi SSW 5.8 mph - N/A   Clear
8:15 PM 59.0 °F 51.8 °F 77% 30.08 in 10.0 mi South 6.9 mph - N/A   Clear
8:35 PM 59.0 °F 53.6 °F 82% 30.07 in 10.0 mi South 5.8 mph - N/A   Clear
8:55 PM 59.0 °F 53.6 °F 82% 30.08 in 10.0 mi South 4.6 mph - N/A   Clear
9:15 PM 59.0 °F 53.6 °F 82% 30.07 in 10.0 mi South 4.6 mph - N/A   Clear
9:35 PM 59.0 °F 55.4 °F 88% 30.07 in 10.0 mi South 5.8 mph - N/A   Clear
9:55 PM 59.0 °F 55.4 °F 88% 30.07 in 10.0 mi South 5.8 mph - N/A   Clear
10:15 PM 59.0 °F 55.4 °F 88% 30.07 in 10.0 mi SSW 5.8 mph - N/A   Clear
10:35 PM 59.0 °F 57.2 °F 94% 30.07 in 10.0 mi SSW 6.9 mph - N/A   Mostly Cloudy
10:55 PM 60.8 °F 59.0 °F 94% 30.07 in 10.0 mi SSW 9.2 mph - N/A   Mostly Cloudy
11:15 PM 60.8 °F 59.0 °F 94% 30.06 in 10.0 mi SSW 6.9 mph - N/A   Scattered Clouds
11:35 PM 60.8 °F 59.0 °F 94% 30.06 in 10.0 mi SSW 9.2 mph - N/A   Scattered Clouds
11:55 PM 60.8 °F 59.0 °F 94% 30.05 in 10.0 mi SSW 8.1 mph - N/A   Clear